Home   Weather   Gdynia   Past weeks

Flag for Poland Past Weather in Gdynia, Poland — Yesterday and Last 2 Weeks

Now
28 °F

Ice fog.


Feels Like: 28 °F
Forecast: 39 / 44 °F
Wind: 2 mph from Northwest

Location: Gdansk-Rebiechowo

Current Time: Dec 4, 2016 at 5:06:24 am

Latest Report: Dec 4, 2016 at 4:30 am


Visibility: 0 mi

Pressure: 30.24 "Hg

Humidity: 100%

Dew Point: 28 °F

Location of GdyniaLocation

Past Weather in Gdynia — Graph

°F

Gdynia Temperature Yesterday

Maximum temperature yesterday: 34 °F (at 12:30 am)
Minimum temperature yesterday: 27 °F (at 9:00 am)
Average temperature yesterday: 32 °F

High & Low Weather Summary for the Past Weeks

 TemperatureHumidityPressure
High50 °F (Nov 21, 1:30 pm)100% (Nov 19, 9:00 pm)30.27 "Hg (Nov 19, 9:00 pm)
Low27 °F (Dec 3, 9:00 am)52% (Nov 28, 3:00 pm)29.33 "Hg (Dec 2, 12:00 am)
Average38 °F90%29.94 "Hg
* Reported Nov 19 3:00 am — Dec 4 3:30 am, Gdynia, Weather by CustomWeather, © 2016

Note: Actual official high and low records may vary slightly from our data, if they occured in-between our weather recording intervals... More about our weather records

Advertising

Gdynia Weather History for the Previous 24 Hours

Scroll right to see more
 ConditionsComfort  
Time TempWeatherWind HumidityBarometerVisibility
3:30 am
Sun, Dec 4
30 °FPassing clouds.3 mph100%30.24 "HgN/A
3:00 am30 °FPartly cloudy.3 mph100%30.24 "HgN/A
2:30 am32 °FPassing clouds.3 mph93%30.21 "HgN/A
2:00 am32 °FPassing clouds.2 mph93%30.21 "HgN/A
1:30 am30 °FPassing clouds.3 mph93%30.21 "HgN/A
1:00 am32 °FPassing clouds.3 mph93%30.21 "HgN/A
12:30 am32 °FPassing clouds.6 mph100%30.18 "HgN/A
12:00 am32 °FPassing clouds.5 mph93%30.18 "HgN/A
11:30 pm
Sat, Dec 3
32 °FPartly cloudy.6 mph93%30.18 "HgN/A
11:00 pm32 °FPartly cloudy.6 mph93%30.18 "HgN/A
10:30 pm32 °FPassing clouds.10 mph93%30.15 "HgN/A
10:00 pm34 °FPassing clouds.9 mph93%30.15 "HgN/A
9:30 pm34 °FPassing clouds.12 mph93%30.15 "HgN/A
9:00 pm34 °FPassing clouds.12 mph87%30.15 "HgN/A
8:30 pm34 °FPassing clouds.10 mph87%30.12 "HgN/A
8:00 pm34 °FSnow flurries. Partly cloudy.10 mph87%30.12 "HgN/A
7:30 pm34 °FPartly cloudy.7 mph87%30.12 "HgN/A
7:00 pm34 °FPassing clouds.9 mph87%30.12 "HgN/A
6:30 pm34 °FClear.9 mph87%30.09 "Hg10 mi
6:00 pm34 °FClear.9 mph87%30.09 "Hg10 mi
5:30 pm34 °FClear.7 mph87%30.09 "Hg10 mi
5:00 pm34 °FPassing clouds.8 mph81%30.09 "HgN/A
4:30 pm34 °FClear.9 mph81%30.09 "Hg10 mi
4:00 pm34 °FClear.12 mph81%30.09 "Hg10 mi
3:30 pm34 °FClear.9 mph81%30.09 "Hg10 mi
3:00 pm34 °FSunny.9 mph81%30.09 "Hg10 mi
2:30 pm32 °FPassing clouds.9 mph87%30.09 "HgN/A
2:00 pm34 °FScattered clouds.12 mph81%30.07 "HgN/A
1:30 pm34 °FScattered clouds.15 mph81%30.07 "HgN/A
1:00 pm34 °FSunny.14 mph81%30.07 "Hg10 mi
12:30 pm34 °FSunny.15 mph75%30.07 "Hg10 mi
12:00 pm34 °FSunny.13 mph75%30.07 "Hg10 mi
11:30 am34 °FSunny.12 mph75%30.09 "Hg10 mi
11:00 am32 °FSunny.12 mph80%30.09 "Hg10 mi
10:30 am32 °FSunny.10 mph80%30.09 "Hg10 mi
10:00 am30 °FSunny.9 mph80%30.09 "Hg10 mi
9:30 am28 °FSunny.12 mph86%30.09 "Hg10 mi
9:00 am27 °FSunny.10 mph86%30.09 "Hg10 mi
8:30 am28 °FSunny.7 mph86%30.07 "Hg10 mi
8:00 am28 °FSunny.8 mph86%30.07 "Hg10 mi
7:30 am28 °FClear.12 mph86%30.07 "Hg10 mi
7:00 am30 °FClear.7 mph86%30.07 "Hg10 mi
6:30 am28 °FPassing clouds.7 mph93%30.07 "HgN/A
6:00 am30 °FPassing clouds.7 mph86%30.04 "HgN/A
5:30 am30 °FPassing clouds.7 mph86%30.04 "HgN/A
5:00 am30 °FPassing clouds.9 mph86%30.04 "HgN/A
Weather by CustomWeather, © 2016

See weather overviewHow to use our weather pages